Time,TemperatureF,DewpointF,PressureIn,WindDirection,WindDirectionDegrees,WindSpeedMPH,WindSpeedGustMPH,Humidity,HourlyPrecipIn,Conditions,Clouds,dailyrainin,SoftwareType,DateUTC
2013-04-04 00:03:00,33.0,15.0,-100.00,ESE,110,0.0,3.0,46,0.00,,,-99.99,,2013-04-04 04:03:00,
2013-04-04 00:12:00,32.0,17.0,-100.00,SSE,160,0.0,0.0,53,0.00,,,-99.99,,2013-04-04 04:12:00,
2013-04-04 00:23:00,31.0,15.0,-100.00,ESE,105,0.0,2.0,49,0.00,,,-99.99,,2013-04-04 04:23:00,
2013-04-04 00:33:00,31.0,13.0,-100.00,East,80,0.0,1.0,46,0.00,,,-99.99,,2013-04-04 04:33:00,
2013-04-04 00:43:00,32.0,13.0,-100.00,NNE,20,0.0,1.0,44,0.00,,,-99.99,,2013-04-04 04:43:00,
2013-04-04 00:52:00,30.0,16.0,-100.00,ESE,110,0.0,0.0,54,0.00,,,-99.99,,2013-04-04 04:52:00,
2013-04-04 01:02:00,30.0,16.0,-100.00,SSE,160,0.0,0.0,55,0.00,,,-99.99,,2013-04-04 05:02:00,
2013-04-04 01:13:00,30.0,16.0,-100.00,SE,135,0.0,0.0,56,0.00,,,-99.99,,2013-04-04 05:13:00,
2013-04-04 01:23:00,29.0,15.0,-100.00,North,10,0.0,0.0,55,0.00,,,-99.99,,2013-04-04 05:23:00,
2013-04-04 01:32:00,28.0,17.0,-100.00,SSW,195,0.0,1.0,61,0.00,,,-99.99,,2013-04-04 05:32:00,
2013-04-04 01:42:00,28.0,17.0,-100.00,South,180,0.0,0.0,62,0.00,,,-99.99,,2013-04-04 05:42:00,
2013-04-04 01:52:00,28.0,19.0,-100.00,South,190,0.0,0.0,68,0.00,,,-99.99,,2013-04-04 05:52:00,
2013-04-04 02:02:00,28.0,17.0,-100.00,WSW,250,0.0,2.0,65,0.00,,,-99.99,,2013-04-04 06:02:00,
2013-04-04 02:12:00,28.0,17.0,-100.00,South,180,0.0,0.0,62,0.00,,,-99.99,,2013-04-04 06:12:00,
2013-04-04 02:22:00,28.0,17.0,-100.00,WSW,255,0.0,0.0,63,0.00,,,-99.99,,2013-04-04 06:22:00,
2013-04-04 02:32:00,28.0,16.0,-100.00,SW,215,0.0,0.0,60,0.00,,,-99.99,,2013-04-04 06:32:00,
2013-04-04 02:42:00,28.0,17.0,-100.00,South,185,0.0,2.0,63,0.00,,,-99.99,,2013-04-04 06:42:00,
2013-04-04 02:52:00,27.0,18.0,-100.00,NE,40,0.0,0.0,66,0.00,,,-99.99,,2013-04-04 06:52:00,
2013-04-04 03:02:00,27.0,18.0,-100.00,SSW,200,0.0,0.0,70,0.00,,,-99.99,,2013-04-04 07:02:00,
2013-04-04 03:12:00,27.0,18.0,-100.00,SSW,205,0.0,0.0,68,0.00,,,-99.99,,2013-04-04 07:12:00,
2013-04-04 03:22:00,27.0,19.0,-100.00,SSE,165,0.0,2.0,70,0.00,,,-99.99,,2013-04-04 07:22:00,
2013-04-04 03:32:00,27.0,18.0,-100.00,WSW,250,0.0,1.0,69,0.00,,,-99.99,,2013-04-04 07:32:00,
2013-04-04 03:43:00,27.0,19.0,-100.00,South,190,0.0,0.0,69,0.00,,,-99.99,,2013-04-04 07:43:00,
2013-04-04 03:52:00,27.0,19.0,-100.00,WNW,285,0.0,1.0,70,0.00,,,-99.99,,2013-04-04 07:52:00,
2013-04-04 04:02:00,26.0,19.0,-100.00,WSW,240,0.0,0.0,71,0.00,,,-99.99,,2013-04-04 08:02:00,
2013-04-04 04:12:00,27.0,19.0,-100.00,WSW,255,0.0,0.0,71,0.00,,,-99.99,,2013-04-04 08:12:00,
2013-04-04 04:23:00,27.0,18.0,-100.00,West,270,0.0,3.0,69,0.00,,,-99.99,,2013-04-04 08:23:00,
2013-04-04 04:32:00,27.0,18.0,-100.00,SSW,200,0.0,0.0,70,0.00,,,-99.99,,2013-04-04 08:32:00,
2013-04-04 04:43:00,27.0,18.0,-100.00,SSW,200,0.0,0.0,70,0.00,,,-99.99,,2013-04-04 08:43:00,
2013-04-04 04:52:00,27.0,18.0,-100.00,South,175,0.0,0.0,67,0.00,,,-99.99,,2013-04-04 08:52:00,
2013-04-04 05:03:00,27.0,19.0,-100.00,NNE,25,0.0,1.0,69,0.00,,,-99.99,,2013-04-04 09:03:00,
2013-04-04 05:12:00,28.0,18.0,-100.00,NE,45,0.0,1.0,66,0.00,,,-99.99,,2013-04-04 09:12:00,
2013-04-04 05:22:00,28.0,18.0,-100.00,North,5,0.0,2.0,67,0.00,,,-99.99,,2013-04-04 09:22:00,
2013-04-04 05:34:00,27.0,18.0,-100.00,SSW,205,0.0,4.0,69,0.00,,,-99.99,,2013-04-04 09:34:00,
2013-04-04 05:43:00,28.0,18.0,-100.00,NE,50,0.0,1.0,67,0.00,,,-99.99,,2013-04-04 09:43:00,
2013-04-04 05:53:00,27.0,16.0,-100.00,SSE,150,0.0,3.0,62,0.00,,,-99.99,,2013-04-04 09:53:00,
2013-04-04 06:04:00,28.0,16.0,-100.00,NE,40,0.0,4.0,59,0.00,,,-99.99,,2013-04-04 10:04:00,
2013-04-04 06:12:00,29.0,15.0,-100.00,East,85,0.0,2.0,55,0.00,,,-99.99,,2013-04-04 10:12:00,
2013-04-04 06:24:00,28.0,15.0,-100.00,SE,135,0.0,2.0,57,0.00,,,-99.99,,2013-04-04 10:24:00,
2013-04-04 06:33:00,29.0,15.0,-100.00,ENE,70,1.0,4.0,54,0.00,,,-99.99,,2013-04-04 10:33:00,
2013-04-04 06:42:00,29.0,14.0,-100.00,ENE,60,0.0,3.0,52,0.00,,,-99.99,,2013-04-04 10:42:00,
2013-04-04 06:53:00,29.0,15.0,-100.00,ENE,70,1.0,4.0,55,0.00,,,-99.99,,2013-04-04 10:53:00,
2013-04-04 07:03:00,29.0,13.0,-100.00,NNE,25,0.0,3.0,51,0.00,,,-99.99,,2013-04-04 11:03:00,
2013-04-04 07:12:00,28.0,16.0,-100.00,ESE,110,0.0,4.0,59,0.00,,,-99.99,,2013-04-04 11:12:00,
2013-04-04 07:22:00,29.0,14.0,-100.00,NE,45,0.0,3.0,51,0.00,,,-99.99,,2013-04-04 11:22:00,
2013-04-04 07:33:00,29.0,14.0,-100.00,NE,40,0.0,3.0,53,0.00,,,-99.99,,2013-04-04 11:33:00,
2013-04-04 07:42:00,29.0,15.0,-100.00,NE,45,0.0,5.0,54,0.00,,,-99.99,,2013-04-04 11:42:00,
2013-04-04 07:53:00,30.0,12.0,-100.00,NE,45,0.0,5.0,48,0.00,,,-99.99,,2013-04-04 11:53:00,
2013-04-04 08:03:00,29.0,13.0,-100.00,NE,50,1.0,4.0,49,0.00,,,-99.99,,2013-04-04 12:03:00,
2013-04-04 08:12:00,30.0,13.0,-100.00,NE,55,1.0,3.0,49,0.00,,,-99.99,,2013-04-04 12:12:00,
2013-04-04 08:22:00,30.0,13.0,-100.00,NE,50,1.0,3.0,49,0.00,,,-99.99,,2013-04-04 12:22:00,
2013-04-04 08:33:00,30.0,12.0,-100.00,ENE,60,2.0,6.0,46,0.00,,,-99.99,,2013-04-04 12:33:00,
2013-04-04 08:43:00,30.0,14.0,-100.00,NE,40,1.0,3.0,49,0.00,,,-99.99,,2013-04-04 12:43:00,
2013-04-04 08:52:00,30.0,13.0,-100.00,NE,45,1.0,4.0,47,0.00,,,-99.99,,2013-04-04 12:52:00,
2013-04-04 09:02:00,31.0,15.0,-100.00,SE,145,0.0,4.0,49,0.00,,,-99.99,,2013-04-04 13:02:00,
2013-04-04 09:12:00,31.0,13.0,-100.00,NE,55,1.0,5.0,45,0.00,,,-99.99,,2013-04-04 13:12:00,
2013-04-04 09:22:00,32.0,12.0,-100.00,East,95,0.0,6.0,44,0.00,,,-99.99,,2013-04-04 13:22:00,
2013-04-04 09:33:00,32.0,12.0,-100.00,ENE,70,0.0,2.0,43,0.00,,,-99.99,,2013-04-04 13:33:00,
2013-04-04 09:42:00,32.0,12.0,-100.00,ENE,70,1.0,4.0,43,0.00,,,-99.99,,2013-04-04 13:42:00,
2013-04-04 09:52:00,33.0,13.0,-100.00,ENE,60,1.0,5.0,42,0.00,,,-99.99,,2013-04-04 13:52:00,
2013-04-04 10:03:00,34.0,13.0,-100.00,NE,45,0.0,3.0,41,0.00,,,-99.99,,2013-04-04 14:03:00,
2013-04-04 10:13:00,34.0,14.0,-100.00,NE,45,2.0,6.0,43,0.00,,,-99.99,,2013-04-04 14:13:00,
2013-04-04 10:22:00,35.0,13.0,-100.00,ENE,65,0.0,3.0,40,0.00,,,-99.99,,2013-04-04 14:22:00,
2013-04-04 10:33:00,36.0,13.0,-100.00,NE,35,1.0,7.0,39,0.00,,,-99.99,,2013-04-04 14:33:00,
2013-04-04 10:43:00,36.0,13.0,-100.00,NE,55,2.0,8.0,38,0.00,,,-99.99,,2013-04-04 14:43:00,
2013-04-04 10:52:00,37.0,13.0,-100.00,NNE,30,1.0,5.0,36,0.00,,,-99.99,,2013-04-04 14:52:00,
2013-04-04 11:03:00,38.0,12.0,-100.00,East,85,2.0,6.0,34,0.00,,,-99.99,,2013-04-04 15:03:00,
2013-04-04 11:13:00,39.0,12.0,-100.00,NE,40,3.0,6.0,33,0.00,,,-99.99,,2013-04-04 15:13:00,
2013-04-04 11:23:00,40.0,13.0,-100.00,NNE,30,2.0,6.0,31,0.00,,,-99.99,,2013-04-04 15:23:00,
2013-04-04 11:33:00,41.0,11.0,-100.00,ENE,75,6.0,9.0,28,0.00,,,-99.99,,2013-04-04 15:33:00,
2013-04-04 11:43:00,43.0,12.0,-100.00,East,85,2.0,8.0,27,0.00,,,-99.99,,2013-04-04 15:43:00,
2013-04-04 11:53:00,42.0,13.0,-100.00,East,80,2.0,9.0,29,0.00,,,-99.99,,2013-04-04 15:53:00,
2013-04-04 12:03:00,43.0,11.0,-100.00,SW,215,0.0,9.0,26,0.00,,,-99.99,,2013-04-04 16:03:00,
2013-04-04 12:12:00,43.0,11.0,-100.00,East,90,2.0,7.0,26,0.55,,,-99.99,,2013-04-04 16:12:00,
2013-04-04 12:33:00,43.0,11.0,-100.00,ENE,70,4.0,7.0,26,0.00,,,-99.99,,2013-04-04 16:33:00,
2013-04-04 12:42:00,45.0,11.0,-100.00,NE,55,0.0,4.0,25,0.00,,,-99.99,,2013-04-04 16:42:00,
2013-04-04 12:53:00,46.0,11.0,-100.00,North,5,1.0,7.0,24,0.00,,,-99.99,,2013-04-04 16:53:00,
2013-04-04 13:03:00,46.0,11.0,-100.00,South,185,1.0,4.0,23,0.00,,,-99.99,,2013-04-04 17:03:00,
2013-04-04 13:13:00,46.0,11.0,-100.00,ENE,60,4.0,9.0,23,0.00,,,-99.99,,2013-04-04 17:13:00,
2013-04-04 13:23:00,47.0,14.0,-100.00,ENE,70,2.0,7.0,25,0.00,,,-99.99,,2013-04-04 17:23:00,
2013-04-04 13:33:00,48.0,13.0,-100.00,ENE,70,0.0,7.0,24,0.00,,,-99.99,,2013-04-04 17:33:00,
2013-04-04 13:42:00,48.0,13.0,-100.00,NE,35,2.0,6.0,23,0.00,,,-99.99,,2013-04-04 17:42:00,
2013-04-04 13:52:00,47.0,14.0,-100.00,ENE,60,5.0,9.0,25,0.00,,,-99.99,,2013-04-04 17:52:00,
2013-04-04 14:02:00,48.0,13.0,-100.00,ESE,120,0.0,5.0,23,0.00,,,-99.99,,2013-04-04 18:02:00,
2013-04-04 14:12:00,49.0,14.0,-100.00,NE,45,2.0,8.0,24,0.00,,,-99.99,,2013-04-04 18:12:00,
2013-04-04 14:23:00,49.0,13.0,-100.00,East,90,1.0,7.0,24,0.00,,,-99.99,,2013-04-04 18:23:00,
2013-04-04 14:32:00,50.0,14.0,-100.00,SE,135,0.0,4.0,23,0.00,,,-99.99,,2013-04-04 18:32:00,
2013-04-04 14:43:00,50.0,13.0,-100.00,NE,35,1.0,4.0,22,0.00,,,-99.99,,2013-04-04 18:43:00,
2013-04-04 14:52:00,50.0,14.0,-100.00,ENE,70,4.0,9.0,22,0.00,,,-99.99,,2013-04-04 18:52:00,
2013-04-04 15:02:00,51.0,14.0,-100.00,NE,45,4.0,9.0,22,0.00,,,-99.99,,2013-04-04 19:02:00,
2013-04-04 15:12:00,51.0,13.0,-100.00,NE,45,2.0,7.0,21,0.00,,,-99.99,,2013-04-04 19:12:00,
2013-04-04 15:22:00,51.0,12.0,-100.00,NE,55,2.0,7.0,20,0.00,,,-99.99,,2013-04-04 19:22:00,
2013-04-04 15:33:00,51.0,13.0,-100.00,North,0,1.0,4.0,21,0.00,,,-99.99,,2013-04-04 19:33:00,
2013-04-04 15:42:00,52.0,13.0,-100.00,NE,50,0.0,7.0,20,0.00,,,-99.99,,2013-04-04 19:42:00,
2013-04-04 15:52:00,52.0,13.0,-100.00,NE,50,2.0,5.0,20,0.00,,,-99.99,,2013-04-04 19:52:00,
2013-04-04 16:04:00,53.0,16.0,-100.00,NNE,25,1.0,4.0,22,0.00,,,-99.99,,2013-04-04 20:04:00,
2013-04-04 16:12:00,53.0,14.0,-100.00,NNE,25,2.0,8.0,21,0.00,,,-99.99,,2013-04-04 20:12:00,
2013-04-04 16:23:00,53.0,14.0,-100.00,NE,55,2.0,7.0,21,0.00,,,-99.99,,2013-04-04 20:23:00,
2013-04-04 16:32:00,55.0,17.0,-100.00,ENE,60,1.0,6.0,21,0.00,,,-99.99,,2013-04-04 20:32:00,
2013-04-04 16:42:00,54.0,14.0,-100.00,ENE,60,6.0,8.0,20,0.00,,,-99.99,,2013-04-04 20:42:00,
2013-04-04 16:52:00,54.0,12.0,-100.00,East,95,3.0,7.0,18,0.00,,,-99.99,,2013-04-04 20:52:00,
2013-04-04 17:02:00,55.0,13.0,-100.00,NE,50,1.0,9.0,19,0.00,,,-99.99,,2013-04-04 21:02:00,
2013-04-04 17:12:00,55.0,14.0,-100.00,SE,135,1.0,4.0,19,0.00,,,-99.99,,2013-04-04 21:12:00,
2013-04-04 17:22:00,54.0,16.0,-100.00,SSW,200,6.0,9.0,21,0.00,,,-99.99,,2013-04-04 21:22:00,
2013-04-04 17:33:00,53.0,15.0,-100.00,SSW,200,4.0,7.0,21,0.00,,,-99.99,,2013-04-04 21:33:00,
2013-04-04 17:43:00,53.0,15.0,-100.00,SSW,200,4.0,9.0,21,0.00,,,-99.99,,2013-04-04 21:43:00,
2013-04-04 17:52:00,54.0,17.0,-100.00,SSE,165,1.0,9.0,22,0.00,,,-99.99,,2013-04-04 21:52:00,
2013-04-04 18:04:00,54.0,15.0,-100.00,SW,225,1.0,6.0,21,0.00,,,-99.99,,2013-04-04 22:04:00,
2013-04-04 18:12:00,53.0,15.0,-100.00,SSW,195,3.0,9.0,22,0.00,,,-99.99,,2013-04-04 22:12:00,
2013-04-04 18:23:00,53.0,16.0,-100.00,SSW,205,2.0,6.0,23,0.00,,,-99.99,,2013-04-04 22:23:00,
2013-04-04 18:33:00,53.0,17.0,-100.00,South,180,4.0,9.0,24,0.00,,,-99.99,,2013-04-04 22:33:00,
2013-04-04 18:42:00,52.0,17.0,-100.00,South,180,2.0,9.0,24,0.00,,,-99.99,,2013-04-04 22:42:00,
2013-04-04 18:53:00,52.0,17.0,-100.00,South,180,2.0,9.0,24,0.00,,,-99.99,,2013-04-04 22:53:00,
2013-04-04 19:03:00,52.0,17.0,-100.00,South,180,2.0,9.0,24,0.00,,,-99.99,,2013-04-04 23:03:00,
2013-04-04 19:12:00,52.0,17.0,-100.00,South,180,2.0,9.0,24,0.00,,,-99.99,,2013-04-04 23:12:00,
2013-04-04 19:22:00,52.0,17.0,-100.00,South,180,2.0,9.0,24,0.00,,,-99.99,,2013-04-04 23:22:00,
2013-04-04 19:43:00,51.0,18.0,-100.00,South,185,3.0,10.0,27,0.00,,,-99.99,,2013-04-04 23:43:00,
2013-04-04 19:53:00,50.0,17.0,-100.00,South,185,1.0,6.0,26,0.00,,,-99.99,,2013-04-04 23:53:00,
2013-04-04 20:03:00,50.0,19.0,-100.00,SSW,205,0.0,4.0,28,0.00,,,-99.99,,2013-04-05 00:03:00,
2013-04-04 20:12:00,49.0,19.0,-100.00,SW,215,0.0,3.0,30,0.00,,,-99.99,,2013-04-05 00:12:00,
2013-04-04 20:22:00,49.0,22.0,-100.00,NE,55,0.0,2.0,34,0.00,,,-99.99,,2013-04-05 00:22:00,
2013-04-04 20:33:00,47.0,20.0,-100.00,South,190,0.0,2.0,33,0.00,,,-99.99,,2013-04-05 00:33:00,
2013-04-04 20:42:00,46.0,22.0,-100.00,WNW,290,0.0,1.0,37,0.00,,,-99.99,,2013-04-05 00:42:00,
2013-04-04 20:52:00,45.0,23.0,-100.00,SSW,210,0.0,1.0,41,0.00,,,-99.99,,2013-04-05 00:52:00,
2013-04-04 21:02:00,45.0,24.0,-100.00,WSW,240,0.0,2.0,42,0.00,,,-99.99,,2013-04-05 01:02:00,
2013-04-04 21:12:00,44.0,24.0,-100.00,SW,235,0.0,3.0,45,0.00,,,-99.99,,2013-04-05 01:12:00,
2013-04-04 21:22:00,42.0,26.0,-100.00,SW,230,0.0,2.0,52,0.00,,,-99.99,,2013-04-05 01:22:00,
2013-04-04 21:32:00,42.0,27.0,-100.00,SSW,210,0.0,1.0,54,0.00,,,-99.99,,2013-04-05 01:32:00,
2013-04-04 21:42:00,41.0,27.0,-100.00,SW,230,0.0,2.0,56,0.00,,,-99.99,,2013-04-05 01:42:00,
2013-04-04 21:52:00,41.0,27.0,-100.00,SSW,195,0.0,2.0,56,0.00,,,-99.99,,2013-04-05 01:52:00,
2013-04-04 22:03:00,40.0,28.0,-100.00,SW,235,0.0,0.0,60,0.00,,,-99.99,,2013-04-05 02:03:00,
2013-04-04 22:12:00,40.0,28.0,-100.00,South,190,0.0,2.0,61,0.00,,,-99.99,,2013-04-05 02:12:00,
2013-04-04 22:22:00,40.0,28.0,-100.00,SSW,200,0.0,1.0,61,0.00,,,-99.99,,2013-04-05 02:22:00,
2013-04-04 22:32:00,39.0,28.0,-100.00,SW,220,0.0,1.0,65,0.00,,,-99.99,,2013-04-05 02:32:00,
2013-04-04 22:42:00,38.0,28.0,-100.00,SSW,205,0.0,1.0,67,0.00,,,-99.99,,2013-04-05 02:42:00,
2013-04-04 22:52:00,38.0,28.0,-100.00,SSW,210,0.0,1.0,67,0.00,,,-99.99,,2013-04-05 02:52:00,
2013-04-04 23:02:00,38.0,27.0,-100.00,SSW,195,0.0,3.0,65,0.00,,,-99.99,,2013-04-05 03:02:00,
2013-04-04 23:12:00,37.0,27.0,-100.00,SSW,210,0.0,1.0,67,0.00,,,-99.99,,2013-04-05 03:12:00,
2013-04-04 23:22:00,36.0,25.0,-100.00,SW,215,0.0,0.0,65,0.00,,,-99.99,,2013-04-05 03:22:00,
2013-04-04 23:32:00,35.0,26.0,-100.00,South,170,0.0,1.0,67,0.00,,,-99.99,,2013-04-05 03:32:00,
2013-04-04 23:43:00,36.0,26.0,-100.00,SSE,160,0.0,0.0,65,0.00,,,-99.99,,2013-04-05 03:43:00,
2013-04-04 23:53:00,35.0,26.0,-100.00,SSW,210,0.0,1.0,70,0.00,,,-99.99,,2013-04-05 03:53:00,